Date,TemperatureHighF,TemperatureAvgF,TemperatureLowF,DewpointHighF,DewpointAvgF,DewpointLowF,HumidityHigh,HumidityAvg,HumidityLow,PressureMaxIn,PressureMinIn,WindSpeedMaxMPH,WindSpeedAvgMPH,GustSpeedMaxMPH,PrecipitationSumIn
2013-3-1,26.0,20.0,15.0,22.0,18.2,13.0,100,92,84,30.27,30.09,12,7,0,0.00
2013-3-2,34.0,25.6,20.0,32.0,23.8,18.0,96,92,85,30.10,29.84,11,4,0,0.00
2013-3-3,30.0,24.9,19.0,28.0,23.6,18.0,96,95,91,29.85,29.53,17,8,0,0.00
2013-3-4,31.0,22.9,17.0,31.0,21.9,15.0,98,95,93,30.04,29.45,15,8,0,0.00
2013-3-5,17.0,11.1,1.0,16.0,9.1,-2.0,94,91,88,30.34,30.04,9,5,0,0.00
2013-3-6,13.0,5.6,-3.0,11.0,3.2,-6.0,91,89,86,30.34,30.09,16,7,0,0.00
2013-3-7,25.0,18.4,10.0,24.0,16.7,8.0,95,93,91,30.09,29.98,19,11,0,0.00
2013-3-8,22.0,18.7,12.0,19.0,16.3,10.0,95,90,82,30.10,29.94,7,3,0,0.00
2013-3-9,28.0,19.4,9.0,26.0,17.2,6.0,94,91,86,30.07,29.81,12,5,0,0.00
2013-3-10,20.0,11.1,3.0,15.0,7.8,0.0,100,86,76,30.23,30.00,10,4,0,0.00
2013-3-11,30.0,20.4,9.0,27.0,17.9,7.0,95,90,85,30.00,29.74,26,12,0,0.00
2013-3-12,25.0,15.9,2.0,24.0,13.2,0.0,95,88,78,30.22,29.83,16,8,0,0.00
2013-3-13,38.0,18.8,-2.0,31.0,14.8,-5.0,91,84,76,30.22,29.84,14,6,0,0.00
2013-3-14,40.0,30.5,21.0,35.0,27.8,17.0,96,89,81,29.97,29.84,16,5,0,0.00
2013-3-15,21.0,9.9,0.0,19.0,7.3,-3.0,93,90,87,30.12,29.86,15,10,0,0.00
2013-3-16,8.0,1.0,-7.0,5.0,-2.4,-10.0,89,85,80,30.21,30.11,10,3,0,0.00
2013-3-17,18.0,11.4,4.0,16.0,8.6,0.0,93,89,81,30.16,29.48,22,15,0,0.00
2013-3-18,15.0,6.9,0.0,13.0,3.4,-4.0,92,86,78,29.97,29.49,19,12,0,0.00
2013-3-19,12.0,6.3,0.0,8.0,2.7,-5.0,88,84,79,30.36,29.96,13,6,0,0.00
2013-3-20,16.0,5.4,-4.0,7.0,0.6,-8.0,88,81,64,30.36,30.08,10,5,0,0.00
2013-3-21,15.0,6.4,-3.0,11.0,2.0,-7.0,87,82,74,30.08,29.95,13,9,0,0.00
2013-3-22,18.0,12.6,7.0,15.0,9.3,4.0,92,86,80,30.05,29.95,12,8,0,0.00
2013-3-23,20.0,16.4,14.0,17.0,13.9,12.0,92,90,84,30.14,30.04,6,3,0,0.00
2013-3-24,21.0,16.4,6.0,18.0,14.1,2.0,93,91,84,30.24,30.10,8,4,0,0.00
2013-3-25,18.0,9.1,2.0,15.0,6.7,-1.0,100,89,85,30.34,30.24,6,3,0,0.00
2013-3-26,1.0,1.0,1.0,-1.0,-1.0,-1.0,90,90,89,30.27,30.27,0,0,0,0.00
2013-3-27,29.0,22.1,15.0,25.0,19.2,13.0,94,88,83,30.15,30.10,9,5,0,0.00
2013-3-28,27.0,17.9,10.0,26.0,16.5,8.0,97,94,90,30.12,30.09,5,2,0,0.00
2013-3-29,36.0,24.2,9.0,34.0,21.8,7.0,96,91,82,30.12,29.89,6,2,0,0.00
2013-3-30,36.0,31.4,27.0,34.0,28.0,-99.9,97,90,79,29.90,29.81,20,9,0,0.00
2013-3-31,29.0,22.5,11.0,26.0,18.0,8.0,92,82,73,30.15,29.84,15,5,0,0.00